Flag for Switzerland Weather past 2 weeks in Kreuzlingen, Thurgau, Switzerland

Now
48 °F

Passing clouds.


Feels Like: 48 °F
Forecast: 45 / 71 °F
Wind: 2 mph from Northwest

Location: Konstanz

Current Time: May 28, 2015 at 2:43:32 AM

Latest Report: May 28, 2015 at 2:00 AM


Visibility: 16 mi

Pressure: 30.16 "Hg

Humidity: 85%

Dew point: 44 °F

Location of KreuzlingenLocation

Historic Weather in Kreuzlingen — Graph

°F

Kreuzlingen temperature yesterday

Maximum temperature yesterday: 61 °F (at 6:00 PM)
Minimum temperature yesterday: 45 °F (at 6:00 AM)
Average temperature yesterday: 53 °F

Past Weeks' High & Low Weather Summary

 TemperatureHumidityPressure
High78 °F (May 13, 3:00 PM)97% (May 15, 2:00 PM)30.33 "Hg (May 15, 2:00 PM)
Low44 °F (May 21, 4:00 AM)41% (May 17, 4:00 PM)29.70 "Hg (May 18, 7:00 PM)
Average56 °F75%30.06 "Hg
* Reported May 13 1:00 AM — May 28 1:00 AM, Kreuzlingen, Weather by CustomWeather, © 2015

Note: Actual official high and low records may vary slightly from our data, if they occured in-between our weather recording intervals... More about our weather records

Advertising

Kreuzlingen weather history for previous 24 hours

 ConditionsComfort  
Time TempWeatherWind HumidityBarometerVisibility
1:00 AM
Thu, May 28
48 °FClear.2 mph83%30.17 "Hg18 mi
12:00 AM50 °FClear.2 mph68%30.18 "Hg19 mi
11:00 PM
Wed, May 27
51 °FClear.1 mph72%30.19 "Hg12 mi
10:00 PM54 °FPassing clouds.1 mph67%30.18 "Hg17 mi
9:00 PM56 °FScattered clouds.2 mph60%30.16 "Hg25 mi
8:00 PM59 °FSunny.2 mph48%30.16 "Hg25 mi
7:00 PM60 °FSunny.2 mph47%30.16 "Hg25 mi
6:00 PM61 °FPassing clouds.2 mph46%30.17 "Hg19 mi
5:00 PM61 °FScattered clouds.3 mph49%30.19 "Hg16 mi
4:00 PM61 °FPartly sunny.1 mph41%30.19 "Hg16 mi
3:00 PM60 °FPartly sunny.2 mph51%30.21 "Hg16 mi
2:00 PM56 °FOvercast.2 mph53%30.24 "Hg16 mi
1:00 PM54 °FOvercast.2 mph60%30.24 "Hg16 mi
12:00 PM54 °FOvercast.1 mph58%30.25 "Hg16 mi
11:00 AM52 °FOvercast.2 mph65%30.26 "Hg14 mi
10:00 AM53 °FOvercast.1 mph60%30.25 "Hg12 mi
9:00 AM49 °FPartly sunny.1 mph76%30.26 "Hg12 mi
8:00 AM47 °FOvercast.2 mph87%30.26 "Hg12 mi
7:00 AM46 °FOvercast.2 mph91%30.26 "Hg12 mi
6:00 AM45 °FPartly sunny.2 mph90%30.25 "Hg12 mi
5:00 AM46 °FOvercast.3 mph84%30.24 "Hg16 mi
4:00 AM45 °FPassing clouds.2 mph93%30.24 "Hg12 mi
3:00 AM47 °FPassing clouds.2 mph86%30.23 "Hg19 mi
2:00 AM48 °FOvercast.2 mph90%30.22 "Hg13 mi
Weather by CustomWeather, © 2015

See weather overviewHow to use our weather pages